Regional Weather Roundup
Issued by NWS Northern Indiana

Home | Current Version | Previous Version | Graphics & Text | Print | Product List | Glossary On
Versions: 1 2 3 4 5 6 7 8 9 10 11 12 13 14 15 16 17 18 19 20 21 22 23 24 25 26 27 28 29 30 31 32 33 34 35 36 37 38 39 40 41 42 43 44 45 46 47 48 49 50
000
ASUS43 KIWX 190400
RWRIWX

KIWX WEATHER ROUNDUP
NATIONAL WEATHER SERVICE NORTHERN INDIANA
1100 PM EST WED JAN 18 2017

NOTE: "FAIR" INDICATES FEW OR NO CLOUDS BELOW 12,000 FEET WITH NO
SIGNIFICANT WEATHER AND/OR OBSTRUCTIONS TO VISIBILITY.

* THESE STATIONS ARE NOT UNDER NWS QUALITY CONTROL. THEY ALSO MAY NOT
  REPORT WEATHER SUCH AS PRECIPITATION OR FOG.

INZ001>027-190500-
NORTHERN INDIANA

CITY           SKY/WX    TMP DP  RH WIND       PRES   REMARKS
GARY*          CLOUDY    37  32  81 SW14      30.09R
SOUTH BEND     CLOUDY    35  33  92 SW10      30.08S WCI  27
GOSHEN         CLOUDY    35  31  85 SW12      30.08F WCI  27
FORT WAYNE     CLOUDY    36  33  89 SW9       30.11S

$$
INZ028>050-190500-
CENTRAL INDIANA

CITY           SKY/WX    TMP DP  RH WIND       PRES   REMARKS
LAFAYETTE      CLOUDY    36  33  89 S5        30.11F
KOKOMO*        CLOUDY    35  33  92 SW10      30.12S WCI  27
MUNCIE*        CLOUDY    37  34  89 SW9       30.11S
INDIANAPOLIS   CLOUDY    37  33  85 S5        30.12S

$$
MIZ043>046-050>051-056>058-064>065-071>073-077>080-190500-
SOUTHWEST LOWER MICHIGAN

CITY           SKY/WX    TMP DP  RH WIND       PRES   REMARKS
BATTLE CREEK   CLOUDY    33  32  96 SW12      30.06F WCI  24
BENTON HARBOR  CLOUDY    37  32  82 SW9       30.06F
COLDWATER*     CLOUDY    33  33 100 SW8       30.07F FOG     WCI  26
HILLSDALE*     CLOUDY    32  32 100 SW7       30.06F FOG     WCI  26
HOLLAND        CLOUDY    36  32  85 SW16      30.04F
GRAND RAPIDS   CLOUDY    34  30  85 SW14      30.04S WCI  25
KALAMAZOO      CLOUDY    35  30  82 SW10      30.06F WCI  27
STURGIS*       CLOUDY    33  32  96 SW6       30.06F WCI  28
THREE RIVERS*  CLOUDY    34  32  93 SW7       30.07F WCI  28

$$
OHZ001>008-015>018-024>025-190500-
NORTHWEST OHIO

CITY           SKY/WX    TMP DP  RH WIND       PRES   REMARKS
DEFIANCE       CLOUDY    34  32  92 W6        30.10F WCI  29
FINDLAY        CLOUDY    37  33  85 SW9       30.09F
TOLEDO EXPRESS CLOUDY    34  34 100 W15       30.10F FOG     WCI  24
TOLEDO METCALF CLOUDY    36  35  96 SW13G24   30.10F FOG
LIMA           CLOUDY    36  36 100 SW10      30.09F FOG

$$
AND FOR LAKE MICHIGAN COASTAL AND OPEN LAKE BUOY OBSERVATIONS

STATION/POSITION TEMP    WIND        PRES    VSBY  WAVE
                 AIR SEA DIR/SP/G                  HT/PER
                 (F)     (DEG/KT/KT) (MB)    (MI)  (FT/S)
CALUMET HARBOR    36     210/  8/ 12 1017.8R
BURNS HARBOR      37     220/ 13/ 16 1019.0F
SAINT JOSEPH      36     210/ 13/ 19 1018.6

$$
&&



USA.gov is the U.S. government's official web portal to all federal, state and local government web resources and services.